Regional Weather Roundup
Issued by NWS

Home | Current Version | Previous Version | Text Only | Print | Product List | Glossary On
Versions: 1 2 3 4 5 6 7 8 9 10 11 12 13 14 15 16 17 18 19 20 21 22 23 24 25 26 27 28 29 30 31 32 33 34 35 36 37 38 39 40 41 42 43 44 45 46 47 48 49 50
000
ASUS44 KFWD 050015
RWRTX
NORTH TEXAS HOURLY WEATHER ROUNDUP
NATIONAL WEATHER SERVICE FORT WORTH TX
700 PM CDT WED MAY 04 2016

NOTE: "FAIR" INDICATES FEW OR NO CLOUDS BELOW 12,000 FEET WITH NO
SIGNIFICANT WEATHER AND/OR OBSTRUCTIONS TO VISIBILITY.

TXZ118-119-050100-
DALLAS/FORT WORTH METROPLEX

CITY           SKY/WX    TMP DP  RH WIND       PRES   REMARKS
DFW AIRPORT    SUNNY     81  50  33 N12       29.96F
6HR MIN TEMP:  78; 6HR MAX TEMP:  82;

DALLAS LOVE    SUNNY     81  48  31 NW12      29.96S
6HR MIN TEMP:  79; 6HR MAX TEMP:  83;

FTW MEACHAM    SUNNY     80  50  34 NW10      29.98S
6HR MIN TEMP:  78; 6HR MAX TEMP:  82;

DAL-EXECUTIVE  SUNNY     78  49  35 NW9       29.96S
6HR MIN TEMP:  77; 6HR MAX TEMP:  81;

FTW-ALLIANCE   SUNNY     79  50  36 NW8       29.98S
6HR MIN TEMP:  76; 6HR MAX TEMP:  81;

FTW-NAS-JRB    SUNNY     80  51  36 NW8       29.98F
6HR MIN TEMP:  77; 6HR MAX TEMP:  82;

FTW-SPINKS     SUNNY     79  46  31 N10       30.00S
ARLINGTON      SUNNY     82  49  31 NW12      29.97S
6HR MIN TEMP:  79; 6HR MAX TEMP:  84;

GRAND PRAIRIE  SUNNY     81  45  28 W6        29.98F
ADDISON        SUNNY     81  52  36 NW10G17   29.97S
LANCASTER      SUNNY     80  44  28 NW9       29.97S
6HR MIN TEMP:  78; 6HR MAX TEMP:  82;

$$

TXZ091>094-102>105-117-120-121-131>134-050100-
NORTH CENTRAL TEXAS

CITY           SKY/WX    TMP DP  RH WIND       PRES   REMARKS
SHRMAN/DENISON SUNNY     76  48  37 NW6       29.96S
6HR MIN TEMP:  72; 6HR MAX TEMP:  78;

GAINESVILLE    SUNNY     77  53  42 NW7       29.99S
6HR MIN TEMP:  73; 6HR MAX TEMP:  79;

BOWIE          SUNNY     78  46  32 NW7       29.99F
6HR MIN TEMP:  74; 6HR MAX TEMP:  80;

BRIDGEPORT     SUNNY     79  51  38 N8        30.01F
6HR MIN TEMP:  75; 6HR MAX TEMP:  80;

DECATUR        SUNNY     78  47  34 NW5       30.00S
6HR MIN TEMP:  74; 6HR MAX TEMP:  79;

DENTON         SUNNY     78  53  41 NW7       29.97S
6HR MIN TEMP:  75; 6HR MAX TEMP:  80;

MCKINNEY       SUNNY     80  51  36 NW12      29.96R
6HR MIN TEMP:  77; 6HR MAX TEMP:  81;

GREENVILLE     SUNNY     79  46  31 W7        29.95S
TERRELL        SUNNY     79  51  37 NW7       29.96R
6HR MIN TEMP:  77; 6HR MAX TEMP:  81;

WAXAHACHIE     SUNNY     79  51  38 W8        29.98S
6HR MIN TEMP:  77; 6HR MAX TEMP:  80;

CLEBURNE       SUNNY     75  52  43 NW7       30.01S
GRANBURY       SUNNY     80  50  34 NW7       30.01S
6HR MIN TEMP:  78; 6HR MAX TEMP:  82;

$$

TXZ083>090-098>101-113>116-127>130-139>142-154-155-050100-
WESTERN NORTH TEXAS

CITY           SKY/WX    TMP DP  RH WIND       PRES   REMARKS
WICHITA FALLS  SUNNY     81  48  31 NW10      29.99S
6HR MIN TEMP:  77; 6HR MAX TEMP:  83;

WF-KICKAPOO    SUNNY     83  39  20 N12G18    30.00F
6HR MIN TEMP:  77; 6HR MAX TEMP:  84;

ABILENE        SUNNY     79  40  24 NE8       30.05F
6HR MIN TEMP:  74; 6HR MAX TEMP:  81;

ABILENE-DYESS  SUNNY     80  46  30 NE8       30.04S
6HR MIN TEMP:  74; 6HR MAX TEMP:  82; 6HR PCP:  0.02;

BRECKENRIDGE   SUNNY     81  43  26 N6        30.03S
6HR MIN TEMP:  76; 6HR MAX TEMP:  82;

GRAHAM         SUNNY     80  48  32 NW8G16    30.00F
6HR MIN TEMP:  76; 6HR MAX TEMP:  82;

MINERAL WELLS  SUNNY     79  49  34 NW10      29.99F
6HR MIN TEMP:  77; 6HR MAX TEMP:  81;

STEPHENVILLE   SUNNY     78  43  28 N8        30.05S
6HR MIN TEMP:  76; 6HR MAX TEMP:  81;

COMANCHE       SUNNY     76  49  37 N6        30.04S
6HR MIN TEMP:  75; 6HR MAX TEMP:  79;

BROWNWOOD      SUNNY     77  43  29 N7        30.03F
COLEMAN        SUNNY     79  43  27 N6        30.05F
6HR MIN TEMP:  75; 6HR MAX TEMP:  80;

$$

TXZ143>147-156>162-174-175-050100-
CENTRAL TEXAS

CITY           SKY/WX    TMP DP  RH WIND       PRES   REMARKS
WACO           SUNNY     79  50  36 N12       29.98S
6HR MIN TEMP:  79; 6HR MAX TEMP:  84;

WACO-MCGREGOR  SUNNY     80  51  36 N6        29.98F
6HR MIN TEMP:  79; 6HR MAX TEMP:  83;

HILLSBORO      SUNNY     76  50  39 NW9       29.98S
6HR MIN TEMP:  75; 6HR MAX TEMP:  79;

CORSICANA      SUNNY     79  52  38 NW9       29.97F
6HR MIN TEMP:  78; 6HR MAX TEMP:  83; 6HR PCP: TRACE;

HEARNE         SUNNY     80  54  41 CALM      29.97F
6HR MIN TEMP:  77; 6HR MAX TEMP:  83;

TEMPLE         SUNNY     79  54  41 NW9       29.99S
6HR MIN TEMP:  79; 6HR MAX TEMP:  83;

KILLEEN        SUNNY     78  48  34 N13       29.99S
6HR MIN TEMP:  77; 6HR MAX TEMP:  82;

KILLEEN-SKYLRK SUNNY     80  49  33 N12G17    29.99F
6HR MIN TEMP:  79; 6HR MAX TEMP:  83;

FORT HOOD      SUNNY     80  49  33 N12       29.97F
6HR MIN TEMP:  79; 6HR MAX TEMP:  83;

GATESVILLE     SUNNY     81  48  32 MISG      30.02S
HAMILTON       SUNNY     78  50  37 NW9       30.03F
6HR MIN TEMP:  77; 6HR MAX TEMP:  80;

LAMPASAS       SUNNY     78  51  38 N7        30.01S
6HR MIN TEMP:  76; 6HR MAX TEMP:  81;

$$

TXZ095>097-106>112-122>126-135>138-148>153-164>167-050100-
EAST TEXAS

CITY           SKY/WX    TMP DP  RH WIND       PRES   REMARKS
PARIS          SUNNY     79  50  36 NW7       29.91F
6HR MIN TEMP:  75; 6HR MAX TEMP:  81;

SULPHUR SPRNGS SUNNY     77  54  44 W8        29.95F
MOUNT PLEASANT SUNNY     78  50  36 W7        29.93S
6HR MIN TEMP:  76; 6HR MAX TEMP:  80;

GILMER         SUNNY     77  52  42 NW7       29.92S
6HR MIN TEMP:  75; 6HR MAX TEMP:  79;

MINEOLA        SUNNY     79  54  41 NW7       29.94F
TYLER          SUNNY     79  49  34 NW12      29.94S
6HR MIN TEMP:  77; 6HR MAX TEMP:  81;

LONGVIEW       SUNNY     77  51  40 NW16      29.91R
6HR MIN TEMP:  77; 6HR MAX TEMP:  80;

MARSHALL       SUNNY     76  48  36 NW8       29.93S
6HR MIN TEMP:  75; 6HR MAX TEMP:  79;

PALESTINE      SUNNY     79  50  36 NW6       29.96F
JACKSONVILLE   SUNNY     78  47  33 NW10      29.96S
HENDERSON      SUNNY     77  49  37 NW6       29.94S
6HR MIN TEMP:  75; 6HR MAX TEMP:  81;

NACOGDOCHES    SUNNY     77  52  41 NW8       29.93R
6HR MIN TEMP:  75; 6HR MAX TEMP:  81;

LUFKIN         SUNNY     77  53  43 W8        29.93S
6HR MIN TEMP:  76; 6HR MAX TEMP:  80;

$$

SUPPLEMENTAL OBSERVATIONS (CENTRAL)

CITY           SKY/WX    TMP DP  RH WIND       PRES   REMARKS
CADDO GRASSLND   N/A     81  52  36 NW5         N/A
PAT MAYSE LAKE   N/A     79  46  31 W9          N/A
LAKE LIMESTONE   N/A     79  50  36 NW5G13      N/A
MCGREGOR         N/A     79  48  34 N6          N/A
TEMPLE           N/A     82  52  34 NW2G10      N/A
$$

SUPPLEMENTAL OBSERVATIONS (WEST)

CITY           SKY/WX    TMP DP  RH WIND       PRES   REMARKS
MILLERS CREEK    N/A     84  43  23 N5          N/A
POSSUM KINGDOM   N/A     81  46  30 N7          N/A
LBJ GRASSLAND    N/A     81  48  32 NW6         N/A
GRANBURY         N/A     81  50  34 N8          N/A
COMANCHE         N/A     75  46  35 N7          N/A
HAMBY            N/A     81  43  26 N5          N/A
IVIE RESERVOIR   N/A     82  41  23 N5          N/A
COLORADO BEND    N/A     79  45  29 NE5G13      N/A
$$

SUPPLEMENTAL OBSERVATIONS (EAST)

CITY           SKY/WX    TMP DP  RH WIND       PRES   REMARKS
CLARKSVILLE      N/A     75  55  50 W1          N/A
TEXARKANA        N/A     79  52  38 W5G13       N/A
LINDEN           N/A     79  52  38 NW5G20      N/A
CADDO LAKE       N/A     79  54  41 W2G12       N/A
GILMER    C1F1C2F2C3F3C4F4C5F5C6F6C7F7C8F8C9!


USA.gov is the U.S. government's official web portal to all federal, state and local government web resources and services.